Find Starlink 34266

NORAD ID: 65093 Int'l Des: 2025-167 Owner: SPXS Country: US Constellation: starlink operational
LEOCIRCULAR

現在のビュー

3D地球を読み込み中...

Starlink 34266について

説明を読み込み中...

次回通過

Passes for default location (London). Set your location on the main map for personalized predictions.

高度履歴

Loading altitude history...

軌道要素

1 65093U 25167R 26146.07386666 .00027832 00000-0 64663-3 0 9995
2 65093 53.1602 24.6638 0001097 74.4417 285.6710 15.42162758 45363
Epoch: May 26, 2026 • Age: 14 hours

現在のステータス

高度 457.6 km
速度 7.64 km/s
衛星直下点 -49.85°S, 150.25°E
打ち上げ日 Aug 4, 2025
運用期間 0.8 years
タイプ internet

技術仕様

分類 Payload
質量 575.00 kg
乾燥質量 530.00 kg
総質量 575.00 kg
長さ 0.30 m
直径 4.10 m
スパン 29.00 m
形状 Box + pan
製造者 SPXS
バスタイプ Starlink V2MO
フェーズステータス In Orbit
所有者/国 SPXS/US

Most Searched